CW9676 Weather Reports


time (UTC)temp
C
wind
direction
speed
KPH
gust
KPH
rain 1hr
cm
rain 24hr
cm
rain mn
cm
humidity
%
barometer
mb
20260906084730 22 250 3.2 6.4 0.00 0.00 0.00 50 1005.3
20260906083754 22 246 3.2 16.1 0.00 0.00 0.00 50 1005.3
20260906082729 22 219 4.8 16.1 0.00 0.00 0.00 51 1005.4
20260906080538 21 222 3.2 4.8 0.00 0.00 0.00 52 1005.5
20260906075520 22 230 1.6 8.0 0.00 0.00 0.00 51 1005.5
20260906074512 22 245 3.2 8.0 0.00 0.00 0.00 50 1005.6
20260906073515 22 254 1.6 6.4 0.00 0.00 0.00 51 1005.6
20260906072533 21 256 3.2 6.4 0.00 0.00 0.00 51 1005.7
20260906071516 21 247 4.8 6.4 0.00 0.00 0.00 51 1005.9
20260906070442 22 237 4.8 8.0 0.00 0.00 0.00 51 1006.0
20260906065507 22 219 6.4 8.0 0.00 0.00 0.00 51 1006.0
20260906064512 22 234 4.8 8.0 0.00 0.00 0.00 51 1006.1
20260906063523 22 228 4.8 6.4 0.00 0.00 0.00 50 1006.0
20260906062514 22 226 4.8 6.4 0.00 0.00 0.00 50 1006.1
20260906060416 22 247 4.8 8.0 0.00 0.00 0.00 49 1006.1
20260906054258 22 236 4.8 6.4 0.00 0.00 0.00 49 1006.0
20260906053237 22 237 4.8 6.4 0.00 0.00 0.00 49 1006.0
20260906052241 22 224 4.8 8.0 0.00 0.00 0.00 50 1005.9
20260906051306 22 214 6.4 8.0 0.00 0.00 0.00 50 1005.9
20260906050320 22 245 4.8 8.0 0.00 0.00 0.00 49 1006.1
20260906045311 22 237 3.2 6.4 0.00 0.00 0.00 49 1006.0
20260906044321 22 192 1.6 6.4 0.00 0.00 0.00 48 1006.0
20260906043337 23 199 3.2 6.4 0.00 0.00 0.00 47 1006.2
20260906042316 23 221 3.2 4.8 0.00 0.00 0.00 47 1006.1
20260906041329 23 221 3.2 4.8 0.00 0.00 0.00 45 1006.1
20260906040354 23 225 3.2 4.8 0.00 0.00 0.00 45 1006.2
20260906035410 23 231 1.6 4.8 0.00 0.00 0.00 45 1006.2
20260906034355 24 261 3.2 6.4 0.00 0.00 0.00 44 1006.1
20260906033350 23 281 4.8 6.4 0.00 0.00 0.00 44 1006.0
20260906032356 23 296 3.2 6.4 0.00 0.00 0.00 46 1005.8
20260906031327 23 50 0.0 1.6 0.00 0.00 0.00 47 1005.8
20260906030344 23 50 0.0 1.6 0.00 0.00 0.00 49 1005.7
20260906025342 23 50 0.0 1.6 0.00 0.00 0.00 50 1005.7
20260906024347 23 50 0.0 0.0 0.00 0.00 0.00 51 1005.5
20260906023359 23 49 0.0 1.6 0.00 0.00 0.00 50 1005.3
20260906022335 23 49 0.0 0.0 0.00 0.00 0.00 49 1005.3
20260906021335 24 50 0.0 1.6 0.00 0.00 0.00 49 1005.2
20260906020348 24 50 0.0 0.0 0.00 0.00 0.00 48 1005.0
20260906015352 24 50 0.0 1.6 0.00 0.00 0.00 48 1005.0
20260906013309 25 49 0.0 0.0 0.00 0.00 0.00 46 1005.1
20260906012306 25 49 0.0 0.0 0.00 0.00 0.00 45 1005.0
20260906011241 26 50 0.0 0.0 0.00 0.00 0.00 46 1005.0
20260906010253 26 49 0.0 6.4 0.00 0.00 0.00 47 1005.1
20260906005238 26 32 3.2 6.4 0.00 0.00 0.00 47 1005.2
20260906004215 25 346 1.6 8.0 0.00 0.00 0.00 48 1005.2
20260906003208 25 344 3.2 8.0 0.00 0.00 0.00 54 1005.3
20260906002227 23 4 3.2 6.4 0.00 0.00 0.00 61 1005.3
20260906001228 23 107 0.0 1.6 0.00 0.00 0.00 59 1005.5
20260906000156 23 150 1.6 6.4 0.00 0.00 0.00 59 1005.8
20260905235208 24 177 4.8 14.5 0.00 0.00 0.00 52 1005.8
20260905233032 24 276 8.0 19.3 0.00 0.00 0.00 50 1005.5
20260905230809 23 260 17.7 29.0 0.00 0.00 0.00 54 1005.0
20260905225817 23 304 20.9 35.4 0.00 0.00 0.00 54 1004.9
20260905224817 24 314 20.9 35.4 0.00 0.00 0.00 53 1005.0
20260905223832 28 313 11.3 27.4 0.00 0.00 0.00 41 1004.9
20260905222812 29 9 6.4 14.5 0.00 0.00 0.00 37 1004.7
20260905221802 30 108 3.2 14.5 0.00 0.00 0.00 32 1004.7
20260905220733 30 153 3.2 24.1 0.00 0.00 0.00 33 1004.8
20260905215738 30 189 11.3 24.1 0.00 0.00 0.00 34 1004.9
20260905213615 30 19 6.4 16.1 0.00 0.00 0.00 34 1005.0
20260905212625 30 44 3.2 14.5 0.00 0.00 0.00 34 1005.3
20260905211610 30 34 3.2 12.9 0.00 0.00 0.00 34 1005.5
20260905210613 30 57 4.8 12.9 0.00 0.00 0.00 37 1005.6
20260905204418 27 123 4.8 9.7 0.00 0.00 0.00 40 1006.0
20260905202239 27 125 4.8 14.5 0.00 0.00 0.00 42 1006.3
20260905201233 26 85 6.4 14.5 0.00 0.00 0.00 42 1006.3
20260905200251 26 115 6.4 14.5 0.00 0.00 0.00 42 1006.6
20260905194137 27 134 1.6 8.0 0.00 0.00 0.00 40 1006.6
20260905193103 27 75 0.0 9.7 0.00 0.00 0.00 42 1006.6
20260905192111 27 127 3.2 9.7 0.00 0.00 0.00 41 1006.7
20260905191133 28 215 3.2 11.3 0.00 0.00 0.00 40 1006.8
20260905190114 27 25 3.2 16.1 0.00 0.00 0.00 41 1007.0
20260905185132 27 36 6.4 16.1 0.00 0.00 0.00 41 1007.2
20260905184148 27 50 3.2 14.5 0.00 0.00 0.00 41 1007.4
20260905180834 27 59 4.8 16.1 0.00 0.00 0.00 41 1008.0
20260905175829 28 154 4.8 12.9 0.00 0.00 0.00 40 1008.1
20260905174811 28 40 3.2 14.5 0.00 0.00 0.00 40 1008.3
20260905173821 27 115 4.8 14.5 0.00 0.00 0.00 42 1008.3
20260905172814 26 64 3.2 12.9 0.00 0.00 0.00 43 1008.3
20260905171823 27 152 4.8 12.9 0.00 0.00 0.00 44 1008.3
20260905170806 26 116 4.8 12.9 0.00 0.00 0.00 45 1008.3
20260905165749 26 139 4.8 9.7 0.00 0.00 0.00 46 1008.3
20260905164741 27 146 3.2 8.0 0.00 0.00 0.00 45 1008.2
20260905163744 26 4 3.2 8.0 0.00 0.00 0.00 44 1008.2
20260905162726 26 90 1.6 9.7 0.00 0.00 0.00 46 1008.4
20260905160603 26 359 3.2 8.0 0.00 0.00 0.00 42 1008.2
20260905155544 25 157 1.6 6.4 0.00 0.00 0.00 49 1008.2
20260905153416 22 163 3.2 8.0 0.00 0.00 0.00 62 1008.3
20260905152356 22 221 1.6 8.0 0.00 0.00 0.00 65 1008.4
20260905151347 21 154 1.6 6.4 0.00 0.00 0.00 66 1008.4
20260905150344 21 4 1.6 6.4 0.00 0.00 0.00 68 1008.3
20260905145407 21 179 3.2 6.4 0.00 0.00 0.00 69 1008.3
20260905144430 20 198 3.2 6.4 0.00 0.00 0.00 70 1008.2
20260905143439 20 182 3.2 8.0 0.00 0.00 0.00 73 1008.2
20260905142410 19 217 4.8 9.7 0.00 0.00 0.00 75 1008.2
20260905140247 18 164 1.6 6.4 0.00 0.00 0.00 72 1007.9
20260905135300 18 221 3.2 6.4 0.00 0.00 0.00 73 1007.7
20260905134318 18 218 3.2 6.4 0.00 0.00 0.00 74 1007.6
20260905133244 17 231 4.8 6.4 0.00 0.00 0.00 77 1007.6
20260905132233 17 221 3.2 6.4 0.00 0.00 0.00 79 1007.4
20260905131236 17 211 1.6 4.8 0.00 0.00 0.00 78 1007.3
20260905125051 18 225 1.6 8.0 0.00 0.00 0.00 74 1007.0
20260905124111 18 4 4.8 16.1 0.00 0.00 0.00 73 1006.9
20260905123127 18 184 8.0 16.1 0.00 0.00 0.00 72 1006.8
20260905122152 18 229 4.8 11.3 0.00 0.00 0.00 73 1006.8
20260905121135 18 208 4.8 9.7 0.00 0.00 0.00 72 1006.8
20260905120109 18 209 4.8 14.5 0.00 0.00 0.00 71 1006.8
20260905113924 19 227 8.0 14.5 0.00 0.00 0.00 70 1006.7
20260905112930 19 204 6.4 14.5 0.00 0.00 0.00 71 1006.7
20260905111954 19 194 9.7 17.7 0.00 0.00 0.00 70 1006.6
20260905105844 19 168 8.0 17.7 0.00 0.00 0.00 69 1006.7
20260905103647 20 167 9.7 20.9 0.00 0.00 0.00 69 1006.6
20260905102711 20 211 11.3 20.9 0.00 0.00 0.00 68 1006.7
20260905101641 20 217 12.9 20.9 0.00 0.00 0.00 68 1006.6
20260905100639 19 215 9.7 19.3 0.00 0.00 0.00 69 1006.6
20260905095639 18 222 6.4 14.5 0.00 0.00 0.00 72 1006.5
20260905093505 18 192 6.4 12.9 0.00 0.00 0.00 72 1006.5
20260905092458 19 195 8.0 22.5 0.00 0.00 0.00 71 1006.6
20260905091516 19 4 8.0 22.5 0.00 0.00 0.00 71 1006.5
20260905090535 19 201 6.4 22.5 0.00 0.36 0.00 70 1006.6
20260905085556 19 211 6.4 12.9 0.00 0.91 0.00 69 1006.6